Location: Toronto
(43.6672°N, 79.4170°W)
Time: 14:49:49
(UTC-05:00)

ISS - All Passes

Search period start: 02 December 2016 00:00
Search period end: 12 December 2016 00:00
Orbit: 401 x 410 km, 51.6° (Epoch: 03 December)

Date Brightness Start Highest point End Pass type
(mag) Time Alt. Az. Time Alt. Az. Time Alt. Az.
02 Dec - 00:18:42 10° WNW 00:22:01 83° SW 00:25:19 10° SE night (unlit)
02 Dec - 01:57:01 10° WSW 01:58:01 11° SW 01:59:02 10° SSW night (unlit)
02 Dec - 17:00:50 10° S 17:02:48 15° SE 17:04:47 10° E daylight
02 Dec - 18:35:38 10° WSW 18:38:56 75° NNW 18:42:15 10° NE visible
02 Dec - 20:13:06 10° WNW 20:15:50 23° NNW 20:18:35 10° NE visible
02 Dec - 21:50:27 10° NW 21:53:07 22° N 21:55:46 10° ENE night (unlit)
02 Dec - 23:26:50 10° NW 23:30:07 58° NNE 23:33:23 10° ESE night (unlit)
03 Dec - 01:03:51 10° W 01:06:22 20° SW 01:08:52 10° S night (unlit)
03 Dec - 17:43:48 10° SW 17:47:03 62° SE 17:50:19 10° ENE visible
03 Dec - 19:20:49 10° W 19:23:45 29° NNW 19:26:42 10° NE visible
03 Dec - 20:58:26 10° NW 21:00:59 20° N 21:03:33 10° NE night (unlit)
03 Dec - 22:34:59 10° NW 22:38:07 38° NNE 22:41:15 10° E night (unlit)
04 Dec - 00:11:33 10° WNW 00:14:38 35° SW 00:17:40 10° SSE night (unlit)
04 Dec - 16:52:13 10° SSW 16:55:13 33° SE 16:58:15 10° ENE daylight
04 Dec - 18:28:34 10° W 18:31:42 39° NNW 18:34:51 10° NE visible
04 Dec - 20:06:16 10° NW 20:08:49 20° N 20:11:23 10° NE visible
04 Dec - 21:43:08 10° NW 21:46:04 28° NNE 21:48:59 10° E night (unlit)
04 Dec - 23:19:30 10° WNW 23:22:47 66° SW 23:26:04 10° SE night (unlit)
05 Dec - 16:01:05 10° S 16:03:29 19° SE 16:05:52 10° E daylight
05 Dec - 17:36:26 10° WSW 17:39:41 61° NNW 17:42:59 10° NE visible
05 Dec - 19:14:01 10° WNW 19:16:40 22° N 19:19:21 10° NE visible
05 Dec - 20:51:14 10° NW 20:53:57 23° NNE 20:56:41 10° ENE night (unlit)
05 Dec - 22:27:33 10° NW 22:30:52 71° NNE 22:34:10 10° ESE night (unlit)
06 Dec - 00:04:54 10° W 00:07:01 16° SW 00:09:08 10° S night (unlit)
06 Dec - 15:11:16 10° SE 15:11:47 10° SE 15:12:17 10° ESE daylight
06 Dec - 16:44:28 10° SW 16:47:45 78° SE 16:51:03 10° ENE daylight
06 Dec - 18:21:41 10° WNW 18:24:32 26° NNW 18:27:24 10° NE visible
06 Dec - 19:59:12 10° NW 20:01:47 20° N 20:04:22 10° ENE visible
06 Dec - 21:35:40 10° NW 21:38:53 44° NNE 21:42:04 10° E night (unlit)
06 Dec - 23:12:22 10° WNW 23:15:16 28° SW 23:18:10 10° SSE night (unlit)
07 Dec - 15:52:44 10° SSW 15:55:52 42° SE 15:59:01 10° ENE daylight
07 Dec - 17:29:22 10° W 17:32:26 34° NNW 17:35:30 10° NE visible
07 Dec - 19:07:04 10° NW 19:09:36 20° N 19:12:08 10° NE visible
07 Dec - 20:43:47 10° NW 20:46:48 31° NNE 20:49:49 10° E night (unlit)
07 Dec - 22:20:12 10° WNW 22:23:26 51° SW 22:26:39 10° SE night (unlit)
08 Dec - 15:01:22 10° S 15:04:02 23° SE 15:06:44 10° E daylight
08 Dec - 16:37:09 10° WSW 16:40:21 50° NNW 16:43:36 10° NE daylight
08 Dec - 18:14:48 10° WNW 18:17:24 21° N 18:20:00 10° NE visible
08 Dec - 19:51:51 10° NW 19:54:40 25° NNE 19:57:28 10° ENE visible
08 Dec - 21:28:11 10° WNW 21:31:31 88° NNE 21:34:49 10° ESE night (unlit)
08 Dec - 23:06:02 10° WSW 23:07:34 13° SW 23:09:05 10° SSW night (unlit)
09 Dec - 14:10:39 10° SSE 14:12:17 13° SE 14:13:55 10° ESE daylight
09 Dec - 15:45:04 10° WSW 15:48:21 84° NW 15:51:40 10° ENE daylight
09 Dec - 17:22:26 10° WNW 17:25:13 24° NNW 17:27:59 10° NE visible
09 Dec - 18:59:51 10° NW 19:02:29 21° N 19:05:06 10° ENE visible
09 Dec - 20:36:15 10° NW 20:39:30 52° NNE 20:42:45 10° ESE night (unlit)
09 Dec - 22:13:08 10° W 22:15:48 23° SW 22:18:28 10° S night (unlit)
10 Dec - 14:53:11 10° SW 14:56:24 54° SE 14:59:38 10° ENE daylight
10 Dec - 16:30:05 10° W 16:33:03 30° NNW 16:36:02 10° NE daylight
10 Dec - 18:07:43 10° NW 18:10:15 20° N 18:12:47 10° NE visible
10 Dec - 19:44:20 10° NW 19:47:25 35° NNE 19:50:30 10° E visible
10 Dec - 21:20:49 10° WNW 21:23:57 40° SW 21:27:05 10° SSE night (unlit)
11 Dec - 14:01:37 10° SSW 14:04:31 29° SE 14:07:25 10° ENE daylight
11 Dec - 15:37:46 10° W 15:40:55 43° NNW 15:44:06 10° NE daylight
11 Dec - 17:15:27 10° NW 17:18:01 20° N 17:20:35 10° NE visible
11 Dec - 18:52:23 10° NW 18:55:16 27° NNE 18:58:08 10° ENE visible
11 Dec - 20:28:43 10° WNW 20:32:01 75° SW 20:35:19 10° SE night (unlit)
